• Em Portugal
  • Lista de países
  • Para 7 dias
  • Temperatura da água
  • Mapas de satélite
  • Mapa do tempo
  • Widgets de tempo
  • user-avatar
    Iniciar Sessão

    Previsão horária em Tirana

    Hoje, 24 Abril, Terça-feira

    Tempo Temperatura Precipitação Vento Pressão Humidade
    00:00 +19°C° 0 mm 1 m/s 754 mmHg 81%
    01:00 +19°C° 0 mm 1 m/s 754 mmHg 81%
    02:00 +19°C° 0 mm 1 m/s 754 mmHg 81%
    03:00 +18°C° 0 mm 1 m/s 754 mmHg 82%
    04:00 +18°C° 0 mm 1 m/s 754 mmHg 82%
    05:00 +20°C° 0 mm 1 m/s 754 mmHg 76%
    06:00 +21°C° 0 mm 1 m/s 754 mmHg 71%
    07:00 +23°C° 0 mm 1 m/s 755 mmHg 65%
    08:00 +24°C° 0 mm 1 m/s 755 mmHg 60%
    09:00 +26°C° 0 mm 2 m/s 755 mmHg 55%
    10:00 +27°C° 0 mm 2 m/s 755 mmHg 50%
    11:00 +27°C° 0 mm 2 m/s 755 mmHg 49%
    12:00 +28°C° 0 mm 3 m/s 755 mmHg 49%
    13:00 +28°C° 0 mm 3 m/s 755 mmHg 48%
    14:00 +28°C° 0 mm 3 m/s 755 mmHg 50%
    15:00 +27°C° 0 mm 3 m/s 754 mmHg 52%
    16:00 +26°C° 0 mm 3 m/s 754 mmHg 54%
    17:00 +24°C° 0 mm 2 m/s 754 mmHg 64%
    18:00 +21°C° 0 mm 2 m/s 755 mmHg 73%
    19:00 +20°C° 0 mm 1 m/s 755 mmHg 83%
    20:00 +19°C° 0 mm 1 m/s 755 mmHg 84%
    21:00 +19°C° 0 mm 1 m/s 755 mmHg 84%
    22:00 +18°C° 0 mm 1 m/s 756 mmHg 85%
    23:00 +18°C° 0 mm 1 m/s 756 mmHg 81%

    Amanhã, 25 Abril, Quarta-feira

    Tempo Temperatura Precipitação Vento Pressão Humidade
    00:00 +18°C° 0 mm 1 m/s 756 mmHg 77%
    01:00 +18°C° 0 mm 1 m/s 756 mmHg 74%
    02:00 +16°C° 0 mm 1 m/s 755 mmHg 70%
    03:00 +16°C° 0 mm 1 m/s 755 mmHg 66%
    04:00 +15°C° 0 mm 0 m/s 755 mmHg 62%
    05:00 +18°C° 0 mm 1 m/s 755 mmHg 58%
    06:00 +20°C° 0 mm 1 m/s 755 mmHg 54%
    07:00 +21°C° 0 mm 1 m/s 756 mmHg 50%
    08:00 +23°C° 0 mm 1 m/s 756 mmHg 46%
    09:00 +24°C° 0 mm 1 m/s 756 mmHg 43%
    10:00 +26°C° 0 mm 1 m/s 756 mmHg 40%
    11:00 +27°C° 0 mm 2 m/s 755 mmHg 40%
    12:00 +27°C° 0 mm 2 m/s 755 mmHg 39%
    13:00 +28°C° 0 mm 2 m/s 755 mmHg 39%
    14:00 +27°C° 0 mm 2 m/s 755 mmHg 42%
    15:00 +27°C° 0 mm 3 m/s 754 mmHg 45%
    16:00 +26°C° 0 mm 3 m/s 754 mmHg 48%
    17:00 +24°C° 0 mm 2 m/s 754 mmHg 57%
    18:00 +21°C° 0 mm 2 m/s 754 mmHg 65%
    19:00 +20°C° 0 mm 1 m/s 754 mmHg 73%
    20:00 +20°C° 0 mm 1 m/s 754 mmHg 72%
    21:00 +19°C° 0 mm 1 m/s 754 mmHg 71%
    22:00 +19°C° 0 mm 1 m/s 754 mmHg 70%
    23:00 +19°C° 0 mm 1 m/s 754 mmHg 69%

    Depois de amanhã, 26 Abril, Quinta-feira

    Tempo Temperatura Precipitação Vento Pressão Humidade
    00:00 +19°C° 0 mm 1 m/s 754 mmHg 67%
    01:00 +19°C° 0 mm 1 m/s 754 mmHg 65%
    02:00 +18°C° 0 mm 1 m/s 754 mmHg 65%
    03:00 +18°C° 0 mm 1 m/s 754 mmHg 64%
    04:00 +18°C° 0 mm 1 m/s 753 mmHg 63%
    05:00 +19°C° 0 mm 1 m/s 753 mmHg 60%
    06:00 +21°C° 0 mm 1 m/s 753 mmHg 57%
    07:00 +22°C° 0 mm 1 m/s 753 mmHg 54%
    08:00 +24°C° 0 mm 1 m/s 753 mmHg 50%
    09:00 +26°C° 0 mm 1 m/s 753 mmHg 45%
    10:00 +27°C° 0 mm 1 m/s 753 mmHg 41%
    11:00 +28°C° 0 mm 2 m/s 753 mmHg 41%
    12:00 +28°C° 0 mm 2 m/s 752 mmHg 41%
    13:00 +29°C° 0 mm 3 m/s 752 mmHg 41%
    14:00 +28°C° 0 mm 3 m/s 752 mmHg 45%
    15:00 +27°C° 0 mm 3 m/s 751 mmHg 48%
    16:00 +27°C° 0 mm 2 m/s 751 mmHg 51%
    17:00 +25°C° 0 mm 2 m/s 751 mmHg 59%
    18:00 +23°C° 0 mm 2 m/s 751 mmHg 67%
    19:00 +20°C° 0 mm 1 m/s 752 mmHg 75%
    20:00 +20°C° 0 mm 1 m/s 752 mmHg 75%
    21:00 +20°C° 0 mm 1 m/s 752 mmHg 76%
    22:00 +19°C° 0 mm 1 m/s 752 mmHg 76%
    23:00 +19°C° 0 mm 1 m/s 752 mmHg 74%

    27 Abril, Sexta-feira

    Tempo Temperatura Precipitação Vento Pressão Humidade
    00:00 +19°C° 0 mm 1 m/s 752 mmHg 73%
    01:00 +17°C° 0 mm 0 m/s 752 mmHg 71%
    02:00 +19°C° 0 mm 1 m/s 752 mmHg 69%
    03:00 +18°C° 0 mm 1 m/s 752 mmHg 68%
    04:00 +18°C° 0 mm 1 m/s 752 mmHg 67%
    05:00 +19°C° 0 mm 2 m/s 752 mmHg 64%
    06:00 +20°C° 0 mm 2 m/s 752 mmHg 61%
    07:00 +23°C° 0 mm 2 m/s 753 mmHg 58%
    08:00 +25°C° 0 mm 2 m/s 753 mmHg 52%
    09:00 +27°C° 0 mm 2 m/s 753 mmHg 47%
    10:00 +29°C° 0 mm 2 m/s 753 mmHg 41%
    11:00 +30°C° 0 mm 2 m/s 752 mmHg 39%
    12:00 +31°C° 0 mm 2 m/s 752 mmHg 37%
    13:00 +32°C° 0 mm 2 m/s 752 mmHg 35%
    14:00 +31°C° 0 mm 3 m/s 752 mmHg 39%
    15:00 +30°C° 0 mm 3 m/s 751 mmHg 43%
    16:00 +29°C° 0 mm 3 m/s 751 mmHg 46%
    17:00 +27°C° 0 mm 2 m/s 751 mmHg 53%
    18:00 +25°C° 0 mm 2 m/s 752 mmHg 60%
    19:00 +23°C° 0 mm 1 m/s 752 mmHg 66%
    20:00 +23°C° 0,2 mm 1 m/s 752 mmHg 68%
    21:00 +22°C° 0,2 mm 1 m/s 753 mmHg 69%
    22:00 +22°C° 0,2 mm 1 m/s 753 mmHg 70%
    23:00 +21°C° 0,1 mm 1 m/s 753 mmHg 71%

    28 Abril, Sábado

    Tempo Temperatura Precipitação Vento Pressão Humidade
    00:00 +20°C° 0,1 mm 2 m/s 753 mmHg 72%
    01:00 +20°C° 0,1 mm 2 m/s 753 mmHg 73%
    02:00 +20°C° 0,2 mm 2 m/s 753 mmHg 73%
    03:00 +20°C° 0,2 mm 2 m/s 753 mmHg 74%
    04:00 +19°C° 0,2 mm 2 m/s 752 mmHg 75%
    05:00 +21°C° 0,1 mm 2 m/s 752 mmHg 72%
    06:00 +23°C° 0,1 mm 2 m/s 753 mmHg 70%
    07:00 +24°C° 0,1 mm 2 m/s 753 mmHg 67%
    08:00 +26°C° 0 mm 2 m/s 753 mmHg 58%
    09:00 +27°C° 0 mm 2 m/s 753 mmHg 49%
    10:00 +29°C° 0 mm 1 m/s 753 mmHg 40%
    11:00 +30°C° 0 mm 2 m/s 752 mmHg 38%
    12:00 +30°C° 0 mm 2 m/s 752 mmHg 36%
    13:00 +31°C° 0 mm 2 m/s 752 mmHg 34%
    14:00 +30°C° 0 mm 2 m/s 752 mmHg 40%
    15:00 +29°C° 0 mm 2 m/s 751 mmHg 45%
    16:00 +28°C° 0 mm 2 m/s 751 mmHg 51%
    17:00 +26°C° 0,2 mm 2 m/s 751 mmHg 57%
    18:00 +25°C° 0,2 mm 2 m/s 751 mmHg 63%
    19:00 +23°C° 0,2 mm 2 m/s 752 mmHg 69%
    20:00 +23°C° 0 mm 2 m/s 752 mmHg 69%
    21:00 +21°C° 0 mm 2 m/s 752 mmHg 69%
    22:00 +21°C° 0 mm 2 m/s 752 mmHg 69%
    23:00 +20°C° 0,1 mm 2 m/s 752 mmHg 70%

    29 Abril, Domingo

    Tempo Temperatura Precipitação Vento Pressão Humidade
    00:00 +21°C° 0,1 mm 1 m/s 752 mmHg 71%
    01:00 +21°C° 0,1 mm 1 m/s 752 mmHg 72%
    02:00 +21°C° 0,1 mm 1 m/s 752 mmHg 72%
    03:00 +20°C° 0,1 mm 2 m/s 752 mmHg 72%
    04:00 +19°C° 0,1 mm 2 m/s 752 mmHg 73%
    05:00 +20°C° 0,2 mm 2 m/s 752 mmHg 70%
    06:00 +21°C° 0,2 mm 2 m/s 752 mmHg 67%
    07:00 +23°C° 0,2 mm 2 m/s 752 mmHg 65%
    08:00 +25°C° 0 mm 2 m/s 752 mmHg 56%
    09:00 +27°C° 0 mm 2 m/s 752 mmHg 47%
    10:00 +29°C° 0 mm 1 m/s 752 mmHg 39%
    11:00 +29°C° 0 mm 2 m/s 752 mmHg 38%
    12:00 +30°C° 0 mm 2 m/s 751 mmHg 37%
    13:00 +30°C° 0 mm 2 m/s 751 mmHg 36%
    14:00 +29°C° 0,5 mm 3 m/s 751 mmHg 44%
    15:00 +27°C° 0,5 mm 3 m/s 751 mmHg 51%
    16:00 +26°C° 0,5 mm 3 m/s 750 mmHg 58%
    17:00 +24°C° 1 mm 3 m/s 751 mmHg 65%
    18:00 +22°C° 1 mm 3 m/s 751 mmHg 72%
    19:00 +20°C° 1 mm 2 m/s 751 mmHg 79%
    20:00 +20°C° 0,3 mm 3 m/s 751 mmHg 79%
    21:00 +20°C° 0,3 mm 3 m/s 751 mmHg 79%
    22:00 +19°C° 0,3 mm 3 m/s 752 mmHg 79%
    23:00 +19°C° 0,1 mm 2 m/s 752 mmHg 79%
    Mostrar mais